Regional Weather Roundup
Issued by NWS

Home | Current Version | Previous Version | Text Only | Print | Product List | Glossary On
Versions: 1 2 3 4 5 6 7 8 9 10 11 12 13 14 15 16 17 18 19 20 21 22 23 24 25 26 27 28 29 30 31 32 33 34 35 36 37 38 39 40 41 42 43 44 45 46 47 48 49 50
000
ASUS43 KFSD 221910
RWRSD

WEATHER ROUNDUP FOR SOUTH DAKOTA
NATIONAL WEATHER SERVICE SIOUX FALLS SD
200 PM CDT THU JUN 22 2017

NOTE: "FAIR" INDICATES FEW OR NO CLOUDS BELOW 12,000 FEET WITH NO
SIGNIFICANT WEATHER AND/OR OBSTRUCTIONS TO VISIBILITY.


SDZ001>005-009-010-012>017-222000-
NORTHWEST AND NORTH CENTRAL SOUTH DAKOTA

CITY           SKY/WX    TMP DP  RH WIND       PRES   REMARKS
BUFFALO          N/A     74  33  22 W18G30    29.87S
FAITH            N/A     75  44  33 W10G18    29.88F
MOBRIDGE       SUNNY     79  40  24 NW10      29.80F
$$

SDZ012>016-024>037-041>051-057-063-072>074-222000-
SOUTHWEST AND SOUTH CENTRAL SOUTH DAKOTA

CITY           SKY/WX    TMP DP  RH WIND       PRES   REMARKS
RAPID CTY ARPT PTSUNNY   72  44  36 N16G25    29.94F
PIERRE         SUNNY     75  46  35 VRB6G18   29.83F
CUSTER         CLOUDY    63  42  46 NE7       30.01S
ELLSWORTH AFB  SUNNY     71  42  34 N12G23    29.94F
PHILIP         SUNNY     76  46  34 N8G16     29.87F
PINE RIDGE     PTSUNNY   75  55  49 N10       29.92F
SPEARFISH      FAIR      66  45  45 NW7G14    29.99F
WINNER         CLOUDY    69  53  56 NE10      29.86R
$$

SDZ004>011-016>023-039-040-222000-
NORTHEAST SOUTH DAKOTA

CITY           SKY/WX    TMP DP  RH WIND       PRES   REMARKS
ABERDEEN       SUNNY     78  45  30 N8        29.79F
WATERTOWN      PTSUNNY   65  52  62 CALM      29.81S
BROOKINGS      CLOUDY    66  57  72 NE10      29.80S
SISSETON         N/A     78  44  29 N10       29.75F
$$

SDZ017-020-022-023-036>040-048>070-222000-
SOUTHEAST SOUTH DAKOTA

CITY           SKY/WX    TMP DP  RH WIND       PRES   REMARKS
SIOUX FALLS    CLOUDY    75  65  70 NE10      29.74F
HURON          MOSUNNY   71  57  61 NE9       29.81S
CHAMBERLAIN    CLOUDY    72  53  50 N9G17     29.84S
MITCHELL       CLOUDY    70  61  73 N17       29.79F
YANKTON        MOSUNNY   82  61  48 NE13G24   29.72R
$$

ABBREVIATIONS USED IN REMARKS
   TC - TEMPERATURE IN CELSIUS
  WCI - WIND CHILL INDEX
   HX - HEAT INDEX
  VSB - VISIBILITY





USA.gov is the U.S. government's official web portal to all federal, state and local government web resources and services.